Location: Sungai Bunut
(2.6333°N, 113.7333°E)
Time: 11:06:39
(UTC+00:00)

Transit 2A - Pass Details

Date: 09 December 2023
Orbit: 599 x 953 km, 66.7° (Epoch: 01 March)

Event Time Altitude Azimuth Distance (km) Brightness Sun altitude
Rises 16:31:22 0° 359° (N) 2,925 - -69.5°
Reaches altitude 10° 16:33:48 10° 11° (N) 2,062 - -69.4°
Maximum altitude 16:37:51 29° 71° (ENE) 1,259 - -69.2°
Drops below altitude 10° 16:42:14 10° 131° (SE) 2,249 - -68.9°
Sets 16:44:59 0° 142° (SE) 3,242 - -68.7°
